K9JWM Weather Reports


Display with metric or nautical units.
time (UTC)temp
F
wind
direction
speed
MPH
gust
MPH
rain 1hr
in
rain 24hr
in
rain mn
in
humidity
%
barometer
mb
20260904092004 66 257 0.0 6.0 0.00 0.01 0.01 92 1010.2
20260904091549 66 305 3.0 6.0 0.00 0.01 0.01 92 1009.9
20260904091004 66 247 1.0 3.0 0.00 0.01 0.01 92 1010.5
20260904090054 66 94 0.0 0.0 0.00 0.01 0.01 92 1010.1
20260904090004 66 94 0.0 0.0 0.00 0.01 0.01 92 1010.1
20260904085004 66 94 0.0 2.0 0.00 0.01 0.01 92 1009.9
20260904084549 66 94 0.0 0.0 0.00 0.01 0.01 92 1009.7
20260904084004 66 94 0.0 0.0 0.00 0.01 0.01 92 1009.7
20260904083048 66 94 0.0 0.0 0.00 0.01 0.01 92 1009.5
20260904083007 66 94 0.0 2.0 0.00 0.01 0.01 92 1009.5
20260904081548 66 94 0.0 2.0 0.00 0.01 0.01 92 1009.5
20260904080051 66 91 0.0 1.0 0.00 0.01 0.01 92 1009.6
20260904080004 66 91 0.0 3.0 0.00 0.01 0.01 92 1009.6
20260904075011 66 85 0.0 3.0 0.00 0.01 0.01 92 1009.6
20260904074547 66 74 0.0 2.0 0.00 0.01 0.01 92 1009.7
20260904074003 66 49 1.0 3.0 0.00 0.01 0.01 92 1009.5
20260904073052 66 88 0.0 2.0 0.00 0.01 0.01 92 1009.4
20260904073011 66 88 0.0 2.0 0.00 0.01 0.01 92 1009.4
20260904072003 66 88 0.0 2.0 0.00 0.01 0.01 92 1009.4
20260904071548 66 88 0.0 1.0 0.00 0.01 0.01 92 1009.5
20260904071011 66 88 0.0 3.0 0.00 0.01 0.01 92 1009.6
20260904070132 66 86 0.0 0.0 0.00 0.01 0.01 92 1009.8
20260904070004 66 86 0.0 3.0 0.00 0.01 0.01 92 1009.8
20260904065003 65 87 0.0 6.0 0.00 0.01 0.01 92 1009.9
20260904064554 65 116 0.0 2.0 0.00 0.01 0.01 92 1009.9
20260904064004 65 104 0.0 2.0 0.00 0.01 0.01 92 1010.1
20260904063049 65 104 0.0 2.0 0.00 0.01 0.01 92 1010.3
20260904063007 65 104 0.0 2.0 0.00 0.01 0.01 92 1010.3
20260904062004 65 104 0.0 2.0 0.00 0.01 0.01 92 1010.4
20260904061549 65 64 0.0 2.0 0.00 0.01 0.01 92 1010.7
20260904061004 66 72 0.0 3.0 0.00 0.01 0.01 91 1010.9
20260904060050 66 47 0.0 1.0 0.01 0.01 0.01 91 1010.9
20260904060011 66 47 0.0 6.0 0.01 0.01 0.01 91 1010.9
20260904055004 66 49 0.0 3.0 0.01 0.01 0.01 92 1010.5
20260904054549 66 31 0.0 2.0 0.01 0.01 0.01 91 1010.7
20260904054004 66 35 1.0 3.0 0.01 0.01 0.01 91 1010.7
20260904053048 67 36 0.0 0.0 0.01 0.01 0.01 91 1010.9
20260904052003 67 319 1.0 3.0 0.01 0.01 0.01 90 1010.9
20260904051548 68 299 1.0 3.0 0.01 0.01 0.01 91 1010.8
20260904051006 68 67 1.0 3.0 0.01 0.01 0.01 91 1010.6
20260904050057 69 354 0.0 1.0 0.00 0.00 0.00 89 1010.5
20260904050004 69 354 0.0 6.0 0.00 0.00 0.00 89 1010.5
20260904044547 69 121 0.0 0.0 0.00 0.00 0.00 91 1010.8
20260904043050 69 123 1.0 3.0 0.00 0.00 0.00 91 1010.4
20260904043004 69 123 1.0 3.0 0.00 0.00 0.00 91 1010.4
20260904042004 69 110 1.0 3.0 0.00 0.00 0.00 91 1010.3
20260904041547 69 109 0.0 2.0 0.00 0.00 0.00 91 1010.4
20260904041007 69 126 1.0 8.0 0.00 0.00 0.00 91 1010.3
20260904040048 69 124 0.0 2.0 0.00 0.00 0.00 90 1010.3
20260904040004 69 124 1.0 5.0 0.00 0.00 0.00 90 1010.3
20260904035010 69 75 2.0 5.0 0.00 0.00 0.00 90 1010.0
20260904034547 69 116 1.0 3.0 0.00 0.00 0.00 90 1010.2
20260904034003 69 137 1.0 6.0 0.00 0.00 0.00 91 1010.3
20260904033049 69 148 0.0 0.0 0.00 0.00 0.00 91 1010.4
20260904033010 69 148 0.0 2.0 0.00 0.00 0.00 91 1010.4
20260904032004 69 138 0.0 2.0 0.00 0.00 0.00 91 1010.6
20260904031547 69 146 0.0 0.0 0.00 0.00 0.00 92 1010.6
20260904031004 68 146 1.0 3.0 0.00 0.00 0.00 92 1010.5
20260904030048 68 88 0.0 1.0 0.00 0.00 0.00 92 1010.6
20260904030004 68 88 0.0 2.0 0.00 0.00 0.00 92 1010.6
20260904025004 68 82 0.0 6.0 0.00 0.00 0.00 92 1010.4
20260904024549 68 82 0.0 0.0 0.00 0.00 0.00 91 1010.4
20260904023049 68 118 0.0 0.0 0.00 0.00 0.00 92 1009.9
20260904023003 68 118 0.0 2.0 0.00 0.00 0.00 92 1009.9
20260904022004 68 116 1.0 3.0 0.00 0.00 0.00 91 1009.8
20260904021647 68 188 0.0 0.0 0.00 0.00 0.00 91 1009.8
20260904020049 69 188 0.0 0.0 0.00 0.00 0.00 91 1009.9
20260904020003 69 188 0.0 0.0 0.00 0.00 0.00 91 1009.9
20260904015004 69 189 0.0 0.0 0.00 0.00 0.00 90 1010.2
20260904014551 69 188 0.0 0.0 0.00 0.00 0.00 90 1010.3
20260904014007 69 188 0.0 0.0 0.00 0.00 0.00 88 1010.4
20260904013049 71 189 0.0 0.0 0.00 0.00 0.00 84 1010.4
20260904013007 71 189 0.0 0.0 0.00 0.00 0.00 84 1010.4
20260904012004 72 189 0.0 2.0 0.00 0.00 0.00 80 1010.2
20260904011549 72 189 0.0 1.0 0.00 0.00 0.00 79 1010.4
20260904011006 73 189 0.0 3.0 0.00 0.00 0.00 77 1010.2
20260904010050 73 140 1.0 2.0 0.00 0.00 0.00 78 1010.1
20260904010007 73 140 2.0 5.0 0.00 0.00 0.00 78 1010.1
20260904005003 72 97 0.0 2.0 0.00 0.00 0.00 77 1010.0
20260904004847 73 97 0.0 0.0 0.00 0.00 0.00 76 1009.9
20260904004004 73 97 0.0 2.0 0.00 0.00 0.00 75 1009.8
20260904003249 73 97 0.0 0.0 0.00 0.00 0.00 74 1009.8
20260904003003 73 97 0.0 3.0 0.00 0.00 0.00 74 1009.8
20260904002004 74 113 0.0 2.0 0.00 0.00 0.00 72 1009.9
20260904001649 74 113 0.0 1.0 0.00 0.00 0.00 71 1010.3
20260904000048 75 82 0.0 2.0 0.00 0.00 0.00 70 1009.8
20260904000005 75 82 0.0 3.0 0.00 0.00 0.00 70 1009.8
20260903234547 76 82 0.0 0.0 0.00 0.00 0.00 69 1009.7
20260903234004 76 75 0.0 2.0 0.00 0.00 0.00 69 1009.7
20260903233051 76 38 1.0 3.0 0.00 0.00 0.00 69 1009.7
20260903233007 76 38 1.0 3.0 0.00 0.00 0.00 69 1009.7
20260903232006 77 59 0.0 3.0 0.00 0.00 0.00 67 1009.6
20260903231550 77 44 0.0 1.0 0.00 0.00 0.00 67 1009.5
20260903230050 79 65 0.0 1.0 0.00 0.00 0.00 63 1009.2
20260903230005 79 65 0.0 7.0 0.00 0.00 0.00 63 1009.2
20260903224549 83 246 0.0 0.0 0.00 0.00 0.00 56 1009.5
20260903224005 83 213 6.0 10.0 0.00 0.00 0.00 59 1009.5
20260903223050 84 162 2.0 2.0 0.00 0.00 0.00 61 1009.5
20260903223005 84 162 2.0 3.0 0.00 0.00 0.00 61 1009.5
20260903222005 84 148 1.0 9.0 0.00 0.00 0.00 60 1009.4
20260903221550 85 177 0.0 1.0 0.00 0.00 0.00 57 1009.4
20260903221006 84 121 2.0 6.0 0.00 0.00 0.00 58 1009.4
20260903220050 84 231 6.0 6.0 0.00 0.00 0.00 60 1009.4
20260903220005 84 231 5.0 8.0 0.00 0.00 0.00 60 1009.4
20260903215005 85 96 0.0 8.0 0.00 0.00 0.00 58 1009.4
20260903214549 84 163 0.0 1.0 0.00 0.00 0.00 60 1009.5
20260903214008 83 132 1.0 9.0 0.00 0.00 0.00 59 1009.5
20260903213049 83 198 1.0 2.0 0.00 0.00 0.00 59 1009.3
20260903213012 83 198 2.0 8.0 0.00 0.00 0.00 59 1009.3
20260903212005 84 153 1.0 7.0 0.00 0.00 0.00 58 1009.4
20260903211549 85 207 1.0 3.0 0.00 0.00 0.00 57 1009.3
20260903211005 84 96 2.0 8.0 0.00 0.00 0.00 60 1009.3
20260903210059 82 229 1.0 2.0 0.00 0.00 0.00 59 1009.3
20260903210012 82 229 1.0 3.0 0.00 0.00 0.00 59 1009.3
20260903205005 84 157 1.0 8.0 0.00 0.00 0.00 59 1009.5
20260903204550 84 139 1.0 2.0 0.00 0.00 0.00 58 1009.6
20260903204005 83 104 1.0 7.0 0.00 0.00 0.00 63 1009.7
20260903203059 82 103 1.0 6.0 0.00 0.00 0.00 64 1009.8
20260903203005 82 103 1.0 6.0 0.00 0.00 0.00 64 1009.8
20260903202006 81 171 1.0 3.0 0.00 0.00 0.00 66 1009.8
20260903201550 80 153 1.0 1.0 0.00 0.00 0.00 66 1009.9
20260903201017 80 153 0.0 2.0 0.00 0.00 0.00 67 1010.2
20260903200119 80 155 0.0 1.0 0.00 0.00 0.00 69 1010.4
20260903200005 80 155 1.0 2.0 0.00 0.00 0.00 69 1010.4
20260903195005 79 133 1.0 5.0 0.00 0.00 0.00 68 1010.4
20260903194559 79 150 0.0 1.0 0.00 0.00 0.00 69 1010.3
20260903194005 80 150 2.0 3.0 0.00 0.00 0.00 68 1010.3
20260903193055 79 245 0.0 2.0 0.00 0.00 0.00 69 1010.3
20260903193005 79 245 0.0 3.0 0.00 0.00 0.00 69 1010.3
20260903192005 79 245 1.0 3.0 0.00 0.00 0.00 69 1010.2
20260903191549 80 239 3.0 3.0 0.00 0.00 0.00 67 1010.2
20260903191005 81 84 1.0 3.0 0.00 0.00 0.00 71 1010.3
20260903190058 78 147 1.0 2.0 0.00 0.00 0.00 72 1010.4
20260903190005 78 147 1.0 3.0 0.00 0.00 0.00 72 1010.4
20260903184550 78 131 1.0 3.0 0.00 0.00 0.00 74 1010.5
20260903184005 78 184 1.0 5.0 0.00 0.00 0.00 74 1010.6
20260903183049 79 123 0.0 2.0 0.00 0.00 0.00 73 1010.5
20260903183012 79 123 1.0 6.0 0.00 0.00 0.00 73 1010.5
20260903182005 79 121 1.0 6.0 0.00 0.00 0.00 71 1010.5
20260903181550 79 114 1.0 5.0 0.00 0.00 0.00 71 1010.5
20260903181017 80 98 2.0 10.0 0.00 0.00 0.00 69 1010.5
20260903180050 79 86 1.0 5.0 0.00 0.00 0.00 72 1010.9
20260903180005 79 86 2.0 5.0 0.00 0.00 0.00 72 1010.9
20260903175005 77 103 0.0 3.0 0.00 0.00 0.00 75 1010.9
20260903174549 77 84 0.0 2.0 0.00 0.00 0.00 75 1011.1
20260903174005 76 84 1.0 5.0 0.00 0.00 0.00 75 1011.1
20260903173050 76 128 2.0 5.0 0.00 0.00 0.00 75 1011.2
20260903173005 76 128 2.0 6.0 0.00 0.00 0.00 75 1011.2
20260903172006 76 108 1.0 7.0 0.00 0.00 0.00 74 1011.2
20260903171549 76 134 1.0 1.0 0.00 0.00 0.00 75 1011.3
20260903170050 75 58 1.0 2.0 0.00 0.00 0.00 73 1011.4
20260903170005 75 58 1.0 7.0 0.00 0.00 0.00 73 1011.4
20260903165005 75 119 2.0 7.0 0.00 0.00 0.00 75 1011.4
20260903164549 74 127 2.0 3.0 0.00 0.00 0.00 76 1011.3
20260903164005 74 127 2.0 5.0 0.00 0.00 0.00 76 1011.4
20260903163050 73 124 0.0 1.0 0.00 0.00 0.00 76 1011.4
20260903163005 73 124 1.0 6.0 0.00 0.00 0.00 76 1011.4
20260903162005 72 120 3.0 7.0 0.00 0.00 0.00 79 1011.6
20260903161550 71 140 1.0 3.0 0.00 0.00 0.00 79 1011.5
20260903161005 71 110 1.0 3.0 0.00 0.00 0.00 81 1011.5
20260903160049 70 67 2.0 5.0 0.00 0.00 0.00 81 1011.6
20260903160005 70 67 2.0 7.0 0.00 0.00 0.00 81 1011.6
20260903155008 70 85 3.0 6.0 0.00 0.00 0.00 81 1011.9
20260903154550 69 120 0.0 3.0 0.00 0.00 0.00 82 1011.8
20260903154012 69 106 3.0 7.0 0.00 0.00 0.00 82 1011.8
20260903153049 68 79 1.0 2.0 0.00 0.00 0.00 83 1011.7
20260903153009 68 79 1.0 3.0 0.00 0.00 0.00 83 1011.7
20260903152008 67 73 2.0 9.0 0.00 0.00 0.00 84 1011.8
20260903151549 67 72 2.0 2.0 0.00 0.00 0.00 84 1011.8
20260903151005 66 118 0.0 9.0 0.00 0.00 0.00 86 1011.9
20260903150050 65 124 1.0 3.0 0.00 0.00 0.00 85 1012.2
20260903145005 64 177 0.0 2.0 0.00 0.00 0.00 86 1012.4
20260903144549 65 211 0.0 0.0 0.00 0.00 0.00 85 1012.5
20260903144012 65 212 1.0 2.0 0.00 0.00 0.00 84 1012.4
20260903143050 64 212 0.0 0.0 0.00 0.00 0.00 85 1012.2
20260903143005 64 212 0.0 0.0 0.00 0.00 0.00 85 1012.2
20260903142008 64 212 0.0 1.0 0.00 0.00 0.00 84 1012.3
20260903141553 64 212 0.0 0.0 0.00 0.00 0.00 84 1012.2
20260903140050 64 110 0.0 0.0 0.00 0.00 0.00 83 1012.4
20260903140005 64 110 0.0 2.0 0.00 0.00 0.00 83 1012.4
20260903134550 64 96 0.0 2.0 0.00 0.00 0.00 82 1012.2
20260903133048 64 82 1.0 1.0 0.00 0.00 0.00 82 1012.2
20260903133005 64 82 1.0 5.0 0.00 0.00 0.00 82 1012.2
20260903132005 64 111 0.0 2.0 0.00 0.00 0.00 82 1012.3
20260903131555 64 111 0.0 2.0 0.00 0.00 0.00 83 1012.3
20260903130049 63 105 0.0 2.0 0.00 0.00 0.00 83 1012.3
20260903130005 63 105 0.0 2.0 0.00 0.00 0.00 83 1012.3
20260903124553 62 106 1.0 2.0 0.00 0.00 0.00 84 1012.2
20260903124005 62 80 1.0 6.0 0.00 0.00 0.00 84 1012.1
20260903123050 61 84 0.0 2.0 0.00 0.00 0.00 85 1012.1
20260903123012 61 84 0.0 3.0 0.00 0.00 0.00 85 1012.1
20260903122012 61 93 0.0 3.0 0.00 0.00 0.00 85 1012.1
20260903121549 60 99 0.0 2.0 0.00 0.00 0.00 86 1012.1
20260903121005 60 101 1.0 5.0 0.00 0.00 0.00 86 1012.2
20260903120049 60 98 0.0 2.0 0.00 0.00 0.00 85 1012.0
20260903120004 60 98 0.0 3.0 0.00 0.00 0.00 85 1012.0
20260903115005 60 102 0.0 3.0 0.00 0.00 0.00 85 1012.0
20260903114549 60 103 0.0 2.0 0.00 0.00 0.00 86 1011.9
20260903114012 60 103 0.0 2.0 0.00 0.00 0.00 86 1011.9
20260903113048 59 105 0.0 0.0 0.00 0.00 0.00 87 1012.0
20260903113012 59 105 1.0 3.0 0.00 0.00 0.00 87 1012.0
20260903112011 59 109 0.0 2.0 0.00 0.00 0.00 86 1011.9
20260903111548 59 109 0.0 2.0 0.00 0.00 0.00 86 1011.8
20260903111005 59 103 0.0 1.0 0.00 0.00 0.00 86 1011.8
20260903110049 59 103 0.0 1.0 0.00 0.00 0.00 86 1011.7
20260903105005 58 103 0.0 2.0 0.00 0.00 0.00 85 1011.7
20260903104548 58 102 0.0 2.0 0.00 0.00 0.00 85 1011.6
20260903104012 58 88 0.0 2.0 0.00 0.00 0.00 84 1011.4
20260903103048 59 86 0.0 2.0 0.00 0.00 0.00 83 1011.5
20260903103008 59 86 0.0 2.0 0.00 0.00 0.00 83 1011.5
20260903102004 59 86 0.0 2.0 0.00 0.00 0.00 83 1011.7
20260903101549 60 86 0.0 0.0 0.00 0.00 0.00 83 1011.8
20260903101005 60 86 0.0 2.0 0.00 0.00 0.00 83 1011.9
20260903100048 60 86 0.0 2.0 0.00 0.00 0.00 83 1011.8
20260903100005 60 86 0.0 2.0 0.00 0.00 0.00 83 1011.8
20260903095005 60 86 0.0 2.0 0.00 0.00 0.00 82 1011.8
20260903094559 60 86 0.0 0.0 0.00 0.00 0.00 82 1011.8
20260903094005 60 81 0.0 2.0 0.00 0.00 0.00 82 1011.7
20260903093049 60 74 0.0 0.0 0.00 0.00 0.00 82 1011.6
20260903093005 60 74 0.0 6.0 0.00 0.00 0.00 82 1011.6